Overview Statistics Trail Chart Weather Telemetry Raw packets
 

This is the latest recevied weather packets stored in our database for station/object KC5DAQ-26. If no packets are shown the sender has not sent any weather packets the latest 10 day(s).

<< 19 20 21 22 23 24 25 >>
Time Temp. Humidity Pressure Rain* Wind** Luminosity Snow
1788556863 30° C 81% 1015.9 hPa 0 mm - 183 W/m² -
1788556802 30° C 81% 1016 hPa 0 mm - 183 W/m² -
1788556743 30° C 80% 1015.9 hPa 0 mm - 183 W/m² -
1788556684 30° C 80% 1016 hPa 0 mm - 155 W/m² -
1788556628 30° C 79% 1015.8 hPa 0 mm - 151 W/m² -
1788556563 30° C 79% 1015.9 hPa 0 mm - 151 W/m² -
1788556503 30.56° C 78% 1015.8 hPa 0 mm - 151 W/m² -
1788556443 30.56° C 78% 1015.8 hPa 0 mm - 153 W/m² -
1788556383 30.56° C 78% 1015.7 hPa 0 mm - 157 W/m² -
1788556322 30.56° C 78% 1015.8 hPa 0 mm - 165 W/m² -
1788556263 30.56° C 78% 1015.8 hPa 0 mm - 169 W/m² -
1788556204 30.56° C 78% 1015.8 hPa 0 mm - 174 W/m² -
1788556144 30.56° C 78% 1015.8 hPa 0 mm - 179 W/m² -
1788556082 30.56° C 78% 1015.7 hPa 0 mm - 181 W/m² -
1788556025 30.56° C 77% 1015.8 hPa 0 mm - 178 W/m² -
1788555962 31.11° C 77% 1015.8 hPa 0 mm - 167 W/m² -
1788555904 31.11° C 76% 1015.8 hPa 0 mm - 164 W/m² -
1788555845 31.11° C 76% 1015.9 hPa 0 mm - 160 W/m² -
1788555783 31.11° C 76% 1015.9 hPa 0 mm - 158 W/m² -
1788555722 31.11° C 77% 1016 hPa 0 mm - 155 W/m² -
1788555662 31.11° C 76% 1016 hPa 0 mm - 155 W/m² -
1788555603 31.11° C 76% 1016 hPa 0 mm - 160 W/m² -
1788555542 31.67° C 76% 1016 hPa 0 mm - 164 W/m² -
1788555482 31.67° C 76% 1016 hPa 0 mm - 171 W/m² -
1788555424 31.67° C 77% 1016 hPa 0 mm - 193 W/m² -

* Rain latest hour (hover to see other rain measurements)
** Current wind speed in m/s (hover to see current wind gust speed)